TJS-5

Last updated on Tue Sep 22 2026 00:03:15 GMT+0000 (Coordinated Universal Time)

1 44978U 20002A 26263.89419508 -.00000346 00000+0 00000+0 0 9991 2 44978 0.2333 83.0230 0007450 351.4185 354.7641 1.00270303 24668
UTC large
Height (km)
Speed (km/s)
/
Latitude / Longitude
Inclination (degrees)
Orbital Period (minutes)
Azimuth
Elevation
Range (km)
Doppler Factor

Next 0 passes for location: London (51.5072 / 0.1276)

No passes found over London.
TJS-5